Vorticity
-0 -1 9 16 12 9 12 10 7 9 12 13 10 11 13 9 8 8 8 5 2 2 7 10 11 10 7 6 6 5 4 7 13 14 10 7 7 6 6 5 4 3 3 3 2 3 4 4 4 2 1 3 4 3 5 7 7 8 7 6 6 6 6 6 6 5 5 5 6 7 7 6 7 5 2 6 5 3 4 2 4 4 3 5 6 6 6 7
1 1 10 17 14 11 14 15 14 15 16 13 11 12 11 8 7 8 4 2 4 7 11 10 8 8 6 7 6 6 12 11 9 9 7 5 5 5 5 4 3 3 2 3 3 4 5 3 1 1 3 5 5 5 6 7 6 6 5 5 5 6 6 6 6 6 7 7 7 7 7 7 7 5 4 6 5 5 5 5 7 6 6 6 6 6 7 7
2 6 12 18 18 14 18 24 18 12 13 10 11 12 9 6 6 5 1 3 9 10 10 8 6 7 6 6 6 12 16 10 7 8 6 5 5 5 4 3 3 2 3 4 5 4 3 2 1 2 5 5 5 5 5 5 5 5 5 5 5 6 7 7 6 7 8 7 8 8 7 7 6 4 5 6 6 4 2 4 6 7 7 7 7 8 7 5
5 11 17 21 17 10 16 20 8 4 11 13 14 12 5 4 3 1 4 9 11 9 7 5 6 7 5 6 10 14 12 8 8 7 5 5 5 4 3 3 3 3 4 4 3 3 2 1 3 5 5 4 3 4 5 5 5 6 6 5 6 7 7 7 5 6 8 7 7 7 6 5 4 4 6 7 6 3 3 5 5 6 7 8 8 6 4 4
10 20 23 19 9 5 13 10 3 9 16 15 13 8 4 3 -0 2 9 11 9 7 5 6 7 5 3 9 13 11 9 7 6 4 5 5 4 4 3 3 4 4 4 2 2 1 2 3 5 4 4 4 3 4 6 6 6 6 5 5 7 6 6 5 5 5 5 5 5 6 6 4 4 4 5 7 6 3 4 6 7 8 8 7 5 2 2 4
16 25 22 13 4 4 8 4 8 17 16 12 9 6 3 0 1 7 11 9 7 6 6 7 5 3 8 12 9 7 8 6 4 4 5 4 4 4 4 4 4 4 2 2 2 2 4 5 4 3 4 5 4 5 6 6 6 6 6 6 6 5 5 5 3 4 4 5 6 7 5 2 3 4 5 7 5 3 6 8 9 8 5 4 2 1 2 3
21 26 18 9 3 2 4 8 17 18 10 7 6 2 -0 1 7 11 11 7 6 7 7 5 4 9 15 12 7 6 7 6 5 5 4 4 4 4 4 4 4 2 2 2 2 4 4 3 2 3 5 7 6 6 6 6 6 5 5 5 5 4 5 6 4 5 5 5 6 5 3 2 4 4 6 7 5 5 8 9 7 4 3 2 1 2 2 3
23 19 12 9 6 2 5 12 15 11 6 5 2 -1 2 8 11 11 9 6 7 7 4 4 9 14 12 10 8 3 4 6 5 5 5 5 4 4 4 3 3 2 2 2 2 3 3 3 3 5 7 7 6 6 6 6 4 4 5 4 4 3 4 6 6 5 4 3 5 5 4 4 6 5 7 9 6 6 7 6 4 2 2 2 2 2 2 4
17 4 5 9 7 6 9 13 12 8 6 3 -1 2 9 12 11 8 6 7 8 4 4 10 14 11 7 7 5 1 5 6 5 6 5 5 4 4 3 3 3 2 2 3 3 3 3 4 5 7 7 6 6 6 4 4 3 3 3 3 3 3 4 5 4 5 5 2 3 6 4 3 4 4 8 8 4 4 4 3 2 1 3 3 3 2 3 4
9 -1 6 8 5 9 10 10 11 7 3 1 2 7 12 11 8 5 6 8 5 3 9 13 10 7 6 5 3 3 6 6 6 6 5 4 4 3 3 3 2 2 3 3 3 3 3 6 7 8 7 6 6 5 4 4 2 1 1 3 4 3 2 2 2 3 4 4 2 4 5 5 4 4 6 6 2 2 1 1 1 1 4 4 2 2 3 4
6 0 7 8 10 14 9 7 8 4 1 3 8 11 11 9 5 6 8 5 3 9 13 10 6 6 6 4 4 6 6 6 6 4 4 3 3 3 3 2 2 3 3 2 3 4 6 8 8 7 6 5 3 4 4 2 1 2 3 4 4 4 2 2 3 1 3 6 4 4 6 5 4 3 5 5 3 1 -0 0 1 2 4 2 1 2 3 4
7 4 7 11 17 17 10 9 5 -1 3 9 11 11 9 6 6 8 6 4 7 14 11 6 6 7 5 5 6 6 6 6 4 3 3 3 3 3 3 2 3 4 2 2 5 6 8 8 7 6 5 4 4 4 3 1 4 5 4 4 3 5 4 4 5 4 5 8 7 6 4 2 1 2 4 3 2 2 1 2 3 3 2 0 1 3 3 4
12 11 11 14 19 18 11 7 2 -1 5 11 11 9 6 6 9 6 4 8 12 12 7 5 5 5 5 6 6 6 6 5 3 3 3 3 3 3 3 3 3 4 3 4 7 8 8 7 6 4 3 4 4 3 2 3 6 4 3 4 3 4 5 6 7 6 6 6 5 4 3 2 3 3 4 3 2 3 3 3 4 2 0 0 1 2 3 3
19 17 16 17 17 15 9 4 3 5 8 10 8 6 6 8 6 4 8 12 10 8 6 5 4 5 8 7 5 5 5 4 3 3 3 3 3 3 4 4 3 5 6 7 8 6 6 5 4 3 3 3 3 3 4 5 4 3 5 5 3 5 6 7 8 6 6 4 2 3 3 4 4 3 4 3 3 4 3 2 2 1 1 2 2 2 3 3
17 17 17 17 11 5 4 8 9 10 10 9 6 5 9 7 3 7 12 9 7 8 6 5 5 7 9 6 4 6 4 3 3 3 3 4 4 3 4 4 5 6 7 7 6 4 4 3 3 4 4 3 3 4 5 4 4 6 6 4 4 6 6 6 7 6 4 3 3 5 5 3 2 2 4 4 5 5 3 0 -0 1 2 3 2 2 3 4
8 11 11 11 8 3 4 11 12 10 9 6 5 8 8 2 5 11 10 6 8 8 4 5 7 7 7 5 5 6 3 3 2 2 2 3 4 4 4 6 6 6 6 5 4 3 3 3 3 4 4 4 4 5 5 5 6 6 5 5 5 6 6 6 7 6 5 5 6 7 5 3 3 3 5 6 5 3 2 1 1 2 3 3 2 2 4 4
3 7 9 7 10 10 7 9 9 8 6 5 8 9 4 3 10 10 6 7 8 5 4 7 8 7 7 6 6 5 3 3 3 3 4 3 4 5 6 6 5 5 4 4 3 3 4 5 4 4 4 5 5 5 6 6 5 4 5 6 6 5 6 6 6 6 6 6 6 6 5 4 4 5 7 6 3 4 5 4 4 3 4 3 2 3 5 5
4 5 8 6 10 13 11 10 8 6 5 6 9 6 3 8 11 7 6 8 5 4 7 8 7 7 8 5 5 4 2 2 3 5 6 5 5 5 6 5 3 3 3 3 4 4 5 5 5 4 5 5 5 5 5 5 5 5 6 7 6 5 6 7 7 8 7 6 5 6 6 6 6 7 7 5 5 8 8 7 6 6 5 4 4 4 5 5
6 3 4 6 11 11 9 10 7 5 7 9 7 4 7 11 8 5 6 6 5 6 7 7 5 5 8 6 4 3 2 2 3 4 4 6 6 5 5 4 3 1 2 4 5 5 4 5 5 5 6 7 5 5 6 5 5 7 7 6 6 6 6 6 6 8 8 6 5 6 7 9 8 7 7 7 9 10 9 9 8 7 6 5 5 6 6 6
8 4 2 3 9 11 8 7 6 8 10 7 4 7 12 10 5 5 5 4 6 7 7 6 5 6 8 5 3 3 3 4 4 3 4 6 6 4 4 4 4 2 3 5 6 5 4 4 5 5 6 7 5 6 6 6 6 7 7 7 7 7 6 6 6 7 8 7 6 6 9 10 9 8 9 10 10 10 11 11 9 8 8 7 6 6 6 6
8 10 10 7 6 7 7 6 8 11 8 4 7 11 10 5 4 5 4 5 6 5 7 7 6 8 5 3 3 2 3 4 3 3 6 7 5 3 3 3 4 4 4 5 4 4 4 4 5 5 5 6 5 6 6 6 6 6 7 7 8 8 7 6 6 7 8 8 6 6 9 10 8 8 10 10 8 10 12 12 10 9 9 8 7 6 6 6
6 10 15 14 8 4 4 9 11 9 4 6 12 10 5 4 5 5 4 6 7 6 9 8 6 6 3 3 3 2 5 5 3 4 6 7 4 2 2 2 3 3 3 5 4 4 4 3 4 5 5 5 5 6 6 6 6 6 7 7 7 7 9 8 6 5 6 7 7 7 9 9 8 9 9 8 7 9 12 11 10 10 9 8 7 6 7 6
6 7 11 14 10 4 4 9 9 5 6 11 12 6 3 4 5 4 3 7 9 9 10 8 5 5 3 3 2 2 4 3 4 6 6 5 3 2 2 1 2 3 3 4 5 4 3 3 4 5 5 5 5 6 7 6 6 6 7 8 7 6 8 9 8 7 5 6 7 8 10 10 8 9 7 5 5 7 10 11 9 9 9 8 7 7 7 7
7 7 11 12 8 5 7 8 4 5 10 11 7 3 4 5 5 5 6 9 10 8 8 7 5 4 3 3 2 2 1 0 4 7 7 4 0 1 1 0 2 4 3 4 4 3 2 3 5 6 5 5 5 6 7 6 6 7 8 8 8 8 8 7 9 10 7 5 6 7 10 11 8 6 6 4 4 6 8 10 8 8 9 8 8 8 8 8
6 5 12 12 5 8 11 7 4 9 12 7 4 4 5 6 5 6 9 10 9 7 7 6 5 4 4 5 5 5 6 5 5 5 6 4 1 1 1 1 2 4 4 5 4 2 2 3 5 6 5 4 5 5 6 6 7 8 8 7 7 9 10 7 8 10 9 6 6 6 7 10 10 6 5 5 4 5 8 9 7 8 9 9 8 8 8 8
4 5 11 9 5 10 9 4 7 11 9 4 3 4 5 7 6 8 11 9 7 8 6 4 4 3 2 2 2 4 5 6 7 6 5 4 2 3 2 2 2 3 5 6 4 3 2 3 5 6 5 4 5 5 5 6 7 7 8 7 6 8 10 10 8 8 10 7 6 8 5 7 12 7 5 7 4 4 8 8 7 8 9 9 8 8 8 9
3 6 10 7 6 11 6 3 10 10 5 2 3 4 6 7 8 11 12 8 8 10 5 2 4 5 5 4 3 4 3 3 5 5 5 5 4 3 3 3 3 4 5 5 4 3 2 4 6 5 4 4 4 4 5 6 6 6 7 7 7 7 8 11 10 8 10 7 7 9 3 6 14 8 5 8 4 3 7 7 7 8 9 8 7 8 9 9
5 7 10 7 7 9 4 6 12 8 3 3 3 5 8 8 9 12 10 7 9 9 4 3 4 6 8 7 5 6 5 4 4 3 4 5 4 4 2 3 4 4 4 3 3 3 4 5 6 5 4 4 5 4 5 6 5 6 6 7 8 7 7 12 12 10 10 6 7 10 3 6 15 9 6 9 6 4 7 7 7 9 8 7 8 9 9 8
9 8 9 8 8 7 4 9 11 4 2 3 3 7 8 8 10 11 7 5 8 9 4 4 4 3 5 7 5 5 4 5 4 2 2 2 2 3 2 3 4 4 4 3 2 3 5 6 5 4 4 5 5 4 5 5 5 6 6 8 7 6 8 12 12 12 10 4 6 11 5 3 10 9 7 9 6 5 7 8 7 7 7 8 10 9 8 8
11 9 10 10 8 5 6 10 8 2 2 5 6 8 7 9 11 9 8 7 7 6 3 4 6 4 5 6 4 3 3 2 2 2 1 1 2 2 3 5 4 4 4 4 3 3 4 5 5 5 5 5 5 5 4 5 6 6 6 7 7 6 8 9 9 11 10 4 5 13 9 2 6 9 8 8 6 6 8 8 6 6 8 10 10 8 7 7
11 10 11 10 6 6 10 9 4 2 4 6 7 7 7 10 10 7 10 9 3 3 5 5 7 6 6 6 4 3 3 2 3 3 3 3 2 3 4 5 4 4 5 5 4 4 4 5 5 5 5 5 6 5 4 5 6 5 5 5 6 7 7 6 7 10 13 9 6 11 10 5 7 9 8 8 6 7 9 7 6 7 8 8 7 7 6 6
11 11 11 8 6 9 10 5 2 4 5 6 7 8 9 10 9 6 8 8 3 4 7 7 7 7 7 7 5 3 3 3 5 5 4 4 4 4 4 4 5 5 5 5 5 5 6 5 6 6 4 4 5 5 5 5 5 4 5 5 5 5 5 5 5 7 13 12 8 9 7 5 9 8 7 8 6 7 8 5 5 6 6 6 6 6 6 6
12 12 9 7 8 10 6 2 3 5 6 7 7 9 10 8 8 8 6 5 3 2 4 5 6 7 7 6 5 4 4 4 5 4 4 5 5 6 5 5 5 5 5 5 5 5 6 6 6 5 5 5 5 5 5 5 4 4 4 4 4 6 6 6 6 5 11 12 8 8 5 4 9 8 6 7 6 7 6 4 5 5 5 5 5 6 6 7
12 9 7 8 10 8 3 1 5 6 7 9 8 10 11 8 8 8 6 5 3 1 4 6 6 6 6 5 4 4 4 5 5 5 6 7 6 6 6 6 6 6 6 5 6 6 6 6 6 5 5 6 6 5 5 5 4 3 4 4 5 7 6 8 7 5 8 11 10 8 4 5 9 7 5 6 6 6 5 5 5 5 5 5 5 6 6 6
10 8 8 10 8 3 2 4 6 7 8 9 8 9 10 8 8 7 6 5 4 5 7 7 7 7 6 5 4 5 5 6 6 6 6 6 5 5 6 6 6 6 6 6 7 7 6 7 6 5 6 6 6 6 5 5 4 3 4 4 5 6 6 7 7 4 4 9 13 10 5 6 9 7 5 5 5 5 5 5 6 6 6 5 6 6 5 5
8 8 9 8 3 1 5 6 7 9 9 9 9 8 8 8 7 6 6 6 5 7 8 7 7 7 6 5 5 6 6 6 6 6 6 5 5 5 5 6 6 6 6 6 6 7 7 7 6 6 6 6 6 6 5 6 5 3 3 4 5 6 6 6 7 6 3 7 15 13 6 6 9 5 4 4 4 5 5 5 7 7 5 5 6 5 5 5
8 9 7 3 1 5 7 7 8 9 9 9 8 7 8 8 7 6 6 6 6 7 7 8 8 6 5 6 6 6 6 6 6 6 5 5 5 6 5 6 5 5 6 6 7 7 7 7 7 7 6 5 5 5 5 6 4 3 4 4 5 6 7 8 7 6 5 6 11 14 10 6 8 7 5 5 4 4 5 6 8 7 5 6 6 4 5 5
9 7 3 2 4 7 7 8 9 8 8 9 7 6 7 7 7 6 6 6 7 9 9 8 8 6 6 6 6 6 5 6 6 6 6 6 6 6 7 6 5 5 6 6 7 8 7 7 7 6 5 5 5 4 5 6 4 4 4 5 5 6 9 11 7 6 9 7 6 13 15 7 4 8 5 4 5 3 5 8 7 6 6 6 6 5 5 6
7 2 2 5 7 9 8 8 9 7 7 7 5 6 7 7 7 6 6 7 8 9 9 7 7 7 6 6 6 6 7 7 7 8 8 8 7 7 7 7 5 6 6 6 7 8 8 8 6 5 4 4 4 4 5 5 3 4 5 5 5 5 7 9 8 8 10 7 4 10 17 9 2 6 5 3 5 3 4 8 6 6 7 6 6 5 4 6
4 1 6 9 9 10 9 8 7 6 7 7 5 6 7 6 7 6 7 8 8 8 8 7 8 7 7 7 7 8 9 9 9 9 9 8 8 8 8 7 6 5 6 7 8 8 8 8 6 5 4 3 4 4 5 5 3 4 5 5 5 6 8 8 10 10 7 7 7 7 14 12 3 4 6 3 4 3 4 6 6 7 8 6 6 4 4 7
4 5 8 10 10 10 8 8 7 5 5 6 6 6 6 6 7 8 8 8 8 8 7 7 7 7 7 7 8 9 9 10 10 9 9 9 9 9 8 7 6 5 6 7 8 8 8 7 5 5 4 3 4 3 5 5 4 5 6 6 6 7 9 8 9 11 6 7 9 5 9 12 3 3 7 3 3 3 3 5 5 7 8 7 6 4 5 9
7 8 10 10 10 9 7 6 5 4 5 5 5 6 6 7 8 8 7 7 8 8 7 7 7 7 7 7 8 8 8 10 10 9 9 9 10 9 8 7 6 6 7 8 8 8 6 5 5 6 4 3 4 3 5 5 4 6 6 6 8 8 10 9 9 10 8 8 9 4 7 10 4 3 7 3 3 3 3 5 4 5 8 7 6 4 5 9
9 10 10 9 8 7 6 5 4 6 7 5 6 7 7 7 7 7 7 7 8 8 7 8 7 7 7 7 8 8 8 10 10 10 9 9 10 10 8 8 7 7 8 8 7 6 5 5 4 6 6 4 3 3 4 5 5 6 6 6 8 10 10 9 7 7 6 8 10 4 6 10 5 4 7 4 4 6 5 5 3 4 8 7 5 5 5 9
9 10 9 8 7 5 5 5 4 4 5 6 7 8 7 8 7 7 7 7 7 7 7 8 7 8 8 8 8 9 8 9 10 10 9 9 10 10 9 9 8 8 8 7 7 5 5 4 3 5 5 2 2 2 2 5 6 6 5 5 8 9 9 8 8 7 5 8 12 5 3 10 6 4 7 4 4 7 4 3 3 4 7 8 6 5 6 9
9 8 7 6 6 5 5 6 5 5 6 6 7 6 6 6 6 6 7 6 6 7 7 7 7 8 8 7 7 8 7 8 9 10 10 9 10 9 9 9 8 8 8 6 5 5 4 4 3 4 5 3 4 5 4 7 8 6 5 5 7 8 10 11 10 7 4 7 14 8 0 6 8 4 5 3 3 6 4 2 4 4 6 9 7 5 6 9
7 7 6 5 6 7 7 6 6 6 7 6 6 6 5 5 5 5 5 5 6 6 5 5 6 6 6 5 5 5 5 5 5 7 9 8 8 8 8 8 7 8 7 5 4 4 5 5 4 5 7 5 5 7 6 8 9 7 6 6 8 9 12 13 10 7 3 4 13 11 -0 2 7 5 4 4 4 5 5 5 4 5 7 9 7 6 7 8
7 6 7 6 6 6 7 7 7 7 7 7 7 6 5 5 5 5 5 5 5 5 5 4 4 5 4 4 4 3 2 2 2 3 5 4 5 6 6 6 6 6 6 4 4 4 4 5 4 6 10 6 4 7 7 6 8 8 5 5 8 10 11 12 11 8 4 3 8 11 4 2 6 5 5 7 7 6 6 6 4 5 8 9 8 8 7 7
6 7 7 6 6 6 6 6 7 7 7 6 6 6 6 5 5 5 5 5 5 5 5 4 3 4 4 3 3 3 2 3 3 2 3 3 3 4 4 4 4 4 4 4 5 4 4 6 4 6 12 8 3 6 8 6 8 9 6 5 8 10 10 10 11 8 5 4 7 8 5 4 5 5 4 7 9 9 8 7 5 6 9 10 10 8 6 7
6 7 7 6 7 7 7 6 6 6 6 5 5 6 5 5 5 5 5 5 5 5 4 4 4 4 5 4 4 4 4 4 4 4 4 4 4 5 5 5 4 4 5 5 5 5 4 6 5 5 12 10 3 6 8 7 7 8 7 6 7 9 9 9 11 8 4 6 8 6 4 3 3 4 5 7 9 9 8 7 6 8 10 10 9 8 6 6
5 6 6 6 6 6 7 7 5 5 5 5 6 5 5 6 5 5 5 5 5 5 4 5 5 5 5 4 5 5 5 6 6 5 6 6 7 6 6 7 6 6 6 5 6 7 5 7 6 3 9 11 4 5 8 6 7 10 8 6 6 8 10 9 10 8 5 7 7 4 3 2 1 2 5 8 9 10 8 6 6 8 9 9 8 8 6 6
6 6 6 5 5 5 5 5 5 5 5 5 6 5 6 6 5 5 5 4 5 5 5 5 5 5 5 5 6 7 6 6 6 6 7 7 7 7 7 8 8 7 8 7 8 9 6 6 7 4 8 11 5 4 7 6 8 10 6 5 7 7 8 9 8 8 7 7 6 3 2 2 2 4 6 8 10 11 7 5 5 6 7 8 9 7 7 6
5 5 6 5 4 6 5 5 6 5 5 6 6 6 6 5 6 6 6 6 6 6 5 5 5 6 6 6 7 7 6 7 8 7 8 8 8 9 9 9 9 8 8 8 8 9 7 7 8 5 7 11 7 5 8 9 10 9 4 6 8 6 6 8 9 9 8 6 4 2 0 1 4 6 8 9 9 8 6 4 4 5 7 9 8 8 8 7
Height
5811 5811 5811 5811 5812 5813 5814 5815 5816 5817 5818 5819 5820 5821 5822 5822 5823 5824 5826 5827 5828 5828 5829 5829 5830 5830 5831 5831 5832 5832 5832 5832 5833 5833 5833 5833 5833 5832 5832 5832 5832 5832 5832 5831 5831 5831 5830 5830 5829 5829 5828 5827 5826 5826 5825 5824 5823 5822 5821 5820 5818 5816 5815 5813 5812 5811 5809 5808 5806 5804 5803 5802 5800 5799 5796 5794 5792 5790 5787 5785 5784 5782 5779 5776 5773 5769 5766 5763
5810 5810 5810 5811 5812 5813 5813 5814 5815 5816 5817 5818 5819 5820 5821 5821 5823 5824 5826 5827 5827 5828 5829 5829 5830 5830 5831 5832 5832 5832 5833 5832 5833 5834 5834 5833 5832 5832 5832 5832 5832 5832 5832 5831 5831 5831 5830 5830 5829 5829 5828 5827 5826 5826 5824 5823 5822 5821 5820 5818 5817 5815 5813 5812 5810 5809 5807 5806 5804 5802 5801 5800 5798 5796 5794 5792 5790 5787 5784 5781 5779 5778 5775 5772 5769 5765 5762 5759
5809 5809 5809 5810 5811 5812 5813 5813 5815 5816 5817 5818 5818 5820 5820 5821 5823 5824 5826 5826 5827 5828 5828 5829 5830 5830 5831 5832 5832 5833 5833 5832 5834 5835 5834 5833 5833 5833 5832 5832 5832 5832 5832 5831 5831 5830 5830 5830 5829 5828 5828 5827 5826 5825 5823 5822 5821 5820 5818 5817 5815 5813 5811 5810 5808 5807 5806 5804 5803 5801 5799 5797 5796 5793 5791 5790 5787 5784 5782 5779 5777 5774 5771 5768 5765 5761 5758 5755
5808 5808 5809 5810 5811 5812 5813 5813 5814 5815 5816 5817 5818 5819 5820 5821 5823 5825 5826 5826 5827 5828 5828 5829 5830 5831 5831 5832 5832 5833 5833 5833 5834 5835 5834 5833 5833 5833 5832 5832 5832 5832 5832 5831 5831 5830 5830 5829 5829 5828 5827 5826 5825 5824 5822 5821 5819 5818 5816 5815 5814 5812 5810 5808 5806 5805 5804 5803 5801 5799 5797 5795 5793 5791 5789 5787 5785 5781 5779 5777 5774 5771 5768 5764 5761 5757 5753 5749
5807 5807 5808 5810 5811 5812 5813 5813 5814 5815 5816 5817 5818 5819 5820 5821 5823 5825 5826 5826 5827 5828 5828 5829 5830 5831 5831 5832 5832 5833 5834 5834 5834 5835 5834 5834 5833 5833 5833 5832 5832 5832 5832 5831 5831 5830 5829 5829 5828 5827 5827 5825 5824 5823 5821 5820 5818 5817 5815 5814 5813 5811 5809 5807 5805 5804 5802 5801 5800 5797 5795 5792 5790 5788 5787 5785 5782 5779 5776 5774 5771 5767 5764 5760 5756 5753 5748 5744
5806 5807 5808 5809 5811 5812 5813 5813 5814 5815 5816 5816 5818 5819 5820 5822 5824 5825 5826 5826 5827 5828 5829 5829 5830 5831 5832 5832 5833 5833 5834 5834 5835 5834 5834 5834 5833 5833 5833 5832 5832 5832 5831 5830 5830 5829 5828 5828 5828 5827 5826 5824 5822 5821 5820 5818 5817 5816 5814 5813 5811 5810 5808 5806 5804 5802 5801 5799 5798 5795 5792 5790 5788 5786 5785 5783 5779 5776 5773 5770 5767 5763 5759 5756 5752 5748 5744 5739
5806 5807 5808 5810 5811 5811 5812 5813 5815 5815 5815 5816 5818 5819 5821 5823 5824 5825 5826 5827 5827 5828 5829 5829 5830 5831 5832 5832 5833 5834 5835 5835 5835 5834 5834 5834 5833 5833 5833 5832 5832 5831 5830 5829 5829 5829 5828 5828 5827 5826 5824 5822 5821 5819 5818 5817 5816 5815 5813 5812 5810 5809 5807 5806 5803 5801 5799 5798 5796 5793 5790 5787 5786 5784 5782 5780 5776 5773 5770 5767 5763 5759 5756 5752 5748 5744 5739 5735
5806 5807 5808 5809 5811 5812 5813 5814 5815 5815 5815 5816 5818 5820 5822 5823 5824 5825 5826 5827 5828 5828 5829 5830 5830 5831 5832 5833 5834 5834 5835 5835 5835 5834 5834 5834 5833 5833 5833 5832 5831 5830 5830 5829 5829 5828 5828 5827 5826 5825 5823 5822 5820 5818 5817 5816 5815 5814 5813 5811 5809 5807 5806 5804 5802 5800 5798 5796 5794 5791 5788 5785 5783 5781 5779 5776 5773 5769 5767 5764 5760 5756 5752 5748 5744 5739 5735 5731
5806 5808 5808 5810 5811 5812 5813 5814 5815 5815 5815 5817 5819 5821 5823 5824 5825 5826 5827 5827 5828 5829 5830 5830 5831 5831 5832 5833 5834 5834 5834 5835 5835 5834 5834 5834 5833 5833 5832 5831 5830 5830 5829 5829 5828 5828 5827 5826 5825 5824 5822 5821 5819 5818 5817 5815 5814 5813 5812 5810 5808 5806 5804 5803 5801 5798 5796 5794 5792 5789 5786 5783 5780 5778 5776 5773 5769 5766 5763 5760 5756 5752 5748 5744 5739 5735 5730 5726
5807 5808 5809 5810 5811 5811 5813 5814 5815 5815 5815 5818 5820 5821 5823 5824 5825 5826 5827 5828 5828 5829 5830 5831 5831 5832 5833 5833 5834 5834 5834 5835 5835 5834 5834 5833 5833 5832 5832 5831 5830 5829 5829 5828 5828 5827 5826 5825 5824 5823 5821 5820 5819 5817 5815 5814 5813 5811 5809 5808 5807 5805 5803 5801 5799 5796 5794 5791 5790 5787 5783 5781 5778 5776 5773 5770 5767 5763 5760 5757 5753 5749 5744 5739 5735 5730 5726 5722
5807 5808 5809 5810 5811 5811 5812 5814 5815 5815 5816 5819 5821 5822 5823 5824 5825 5826 5827 5828 5829 5830 5831 5831 5832 5833 5833 5834 5834 5834 5834 5835 5834 5834 5834 5833 5833 5832 5831 5830 5829 5829 5828 5828 5827 5827 5826 5825 5823 5822 5820 5819 5818 5816 5814 5813 5812 5809 5808 5807 5806 5805 5802 5800 5797 5795 5793 5790 5788 5785 5781 5778 5775 5772 5770 5767 5764 5760 5757 5753 5749 5744 5740 5735 5731 5726 5722 5717
5808 5808 5809 5810 5811 5811 5812 5813 5814 5815 5818 5819 5821 5822 5823 5824 5826 5827 5828 5829 5830 5831 5831 5832 5832 5833 5834 5834 5834 5834 5834 5834 5834 5834 5833 5833 5832 5831 5830 5830 5829 5829 5828 5828 5827 5826 5825 5824 5823 5821 5820 5819 5817 5815 5814 5812 5810 5808 5807 5805 5804 5803 5801 5799 5796 5793 5791 5788 5785 5783 5779 5775 5772 5769 5768 5764 5761 5757 5753 5749 5745 5741 5736 5731 5727 5722 5717 5712
5808 5809 5809 5810 5811 5811 5811 5813 5814 5816 5818 5820 5821 5822 5824 5825 5826 5828 5829 5829 5830 5831 5832 5832 5832 5833 5834 5834 5834 5834 5834 5834 5834 5834 5833 5833 5832 5831 5830 5829 5829 5828 5828 5827 5826 5826 5825 5824 5822 5821 5819 5817 5816 5815 5813 5810 5808 5807 5806 5803 5801 5800 5798 5796 5793 5790 5788 5786 5782 5779 5776 5773 5770 5767 5765 5761 5757 5753 5750 5746 5742 5737 5732 5727 5722 5717 5712 5706
5808 5809 5810 5810 5811 5812 5812 5814 5815 5817 5819 5820 5822 5823 5824 5826 5827 5828 5829 5830 5831 5832 5832 5832 5833 5833 5834 5834 5834 5834 5835 5834 5834 5833 5833 5832 5832 5831 5830 5829 5829 5828 5828 5827 5826 5825 5824 5823 5822 5820 5818 5817 5816 5814 5811 5809 5808 5807 5804 5802 5800 5799 5796 5794 5791 5788 5785 5784 5781 5777 5773 5770 5767 5764 5761 5757 5753 5750 5746 5742 5738 5733 5728 5722 5717 5712 5707 5701
5809 5810 5810 5810 5811 5812 5813 5814 5816 5817 5819 5821 5822 5823 5825 5826 5828 5829 5829 5830 5831 5832 5832 5833 5833 5833 5834 5834 5834 5835 5835 5834 5834 5833 5833 5832 5831 5830 5830 5829 5829 5828 5827 5826 5825 5824 5823 5822 5821 5819 5818 5817 5815 5813 5811 5810 5808 5806 5803 5801 5799 5798 5795 5792 5790 5786 5783 5781 5779 5776 5771 5767 5764 5760 5757 5754 5750 5747 5743 5738 5733 5728 5723 5718 5713 5708 5702 5696
5810 5811 5811 5812 5812 5814 5814 5815 5817 5818 5820 5821 5823 5824 5826 5827 5828 5829 5830 5830 5831 5832 5832 5833 5833 5834 5834 5834 5835 5835 5835 5834 5834 5833 5833 5832 5831 5830 5830 5829 5829 5828 5827 5826 5825 5824 5822 5821 5819 5818 5817 5815 5813 5811 5810 5808 5806 5804 5802 5799 5797 5795 5793 5790 5788 5785 5781 5779 5776 5773 5769 5764 5761 5757 5754 5751 5747 5743 5739 5734 5729 5724 5719 5714 5709 5703 5697 5690
5811 5812 5813 5813 5814 5815 5816 5817 5818 5819 5821 5822 5824 5825 5826 5827 5828 5829 5830 5831 5831 5832 5833 5833 5833 5834 5834 5834 5835 5835 5835 5834 5834 5833 5832 5831 5831 5830 5830 5829 5828 5828 5827 5826 5825 5823 5822 5820 5819 5818 5816 5813 5811 5809 5808 5807 5805 5803 5800 5798 5795 5792 5790 5787 5785 5783 5779 5775 5772 5770 5766 5761 5757 5754 5751 5748 5744 5740 5735 5730 5724 5719 5715 5710 5705 5699 5692 5684
5812 5813 5814 5814 5815 5816 5817 5818 5819 5820 5822 5823 5824 5825 5826 5827 5828 5829 5830 5831 5832 5832 5833 5833 5834 5834 5834 5835 5835 5835 5835 5834 5833 5833 5832 5831 5830 5830 5829 5829 5828 5827 5827 5825 5824 5823 5822 5820 5819 5817 5814 5812 5810 5809 5807 5806 5804 5801 5799 5796 5793 5789 5786 5784 5782 5779 5776 5771 5768 5766 5763 5758 5754 5751 5747 5744 5740 5735 5730 5725 5720 5715 5710 5705 5700 5693 5686 5678
5812 5814 5815 5816 5816 5817 5818 5819 5820 5821 5822 5823 5824 5826 5827 5828 5829 5830 5830 5831 5832 5833 5833 5833 5834 5834 5834 5835 5835 5835 5834 5834 5833 5833 5831 5831 5830 5830 5829 5829 5828 5827 5826 5825 5824 5822 5821 5819 5817 5815 5813 5812 5811 5809 5807 5804 5801 5799 5797 5793 5791 5787 5784 5781 5778 5775 5772 5768 5764 5762 5760 5756 5752 5748 5744 5740 5735 5730 5725 5720 5715 5710 5706 5700 5694 5687 5679 5671
5813 5814 5815 5816 5817 5817 5818 5819 5820 5821 5823 5824 5825 5826 5827 5828 5829 5830 5831 5832 5832 5833 5833 5833 5833 5834 5834 5835 5835 5834 5834 5834 5833 5832 5831 5831 5830 5830 5829 5828 5827 5826 5826 5825 5823 5821 5819 5817 5815 5813 5813 5811 5809 5807 5804 5801 5799 5797 5794 5791 5788 5786 5782 5778 5774 5771 5769 5766 5762 5759 5757 5753 5749 5744 5740 5737 5732 5727 5722 5716 5711 5706 5701 5694 5688 5681 5673 5666
5813 5815 5816 5816 5817 5818 5819 5820 5821 5822 5823 5824 5825 5826 5827 5828 5829 5830 5831 5832 5832 5833 5833 5833 5833 5834 5834 5834 5834 5834 5834 5834 5833 5832 5831 5831 5830 5830 5829 5828 5827 5826 5824 5823 5821 5820 5818 5816 5814 5812 5811 5809 5806 5804 5801 5799 5797 5794 5792 5789 5786 5783 5780 5776 5772 5768 5765 5762 5758 5755 5754 5750 5745 5741 5736 5732 5728 5723 5718 5712 5707 5701 5695 5689 5682 5674 5668 5661
5814 5815 5816 5817 5817 5818 5819 5820 5821 5823 5824 5825 5825 5826 5828 5829 5830 5830 5831 5832 5832 5832 5833 5833 5834 5834 5834 5834 5834 5834 5834 5833 5832 5832 5831 5831 5830 5829 5828 5827 5826 5824 5823 5822 5820 5819 5817 5814 5813 5811 5809 5806 5804 5802 5799 5797 5795 5792 5789 5787 5783 5780 5777 5774 5770 5765 5761 5758 5754 5752 5751 5748 5742 5737 5733 5729 5724 5719 5714 5709 5703 5696 5690 5683 5676 5669 5663 5657
5814 5815 5816 5817 5818 5819 5820 5821 5822 5823 5824 5825 5826 5827 5828 5829 5830 5830 5831 5832 5832 5832 5833 5833 5834 5834 5834 5834 5834 5834 5833 5833 5832 5832 5831 5830 5829 5828 5827 5826 5824 5823 5822 5821 5819 5817 5815 5813 5811 5809 5807 5805 5802 5800 5797 5795 5792 5789 5787 5784 5781 5778 5774 5771 5767 5763 5758 5754 5751 5748 5747 5745 5740 5734 5730 5725 5720 5715 5710 5704 5698 5691 5685 5678 5671 5664 5659 5653
5815 5816 5816 5817 5818 5819 5820 5821 5822 5824 5825 5826 5826 5828 5829 5829 5830 5831 5831 5832 5832 5832 5833 5833 5834 5834 5834 5834 5834 5833 5833 5833 5832 5832 5831 5830 5829 5827 5826 5824 5823 5822 5820 5819 5817 5815 5813 5811 5809 5807 5805 5803 5800 5798 5796 5793 5790 5788 5785 5782 5779 5775 5771 5768 5765 5761 5756 5752 5748 5745 5743 5742 5736 5730 5726 5721 5716 5711 5705 5699 5693 5686 5679 5672 5666 5661 5655 5649
5815 5816 5817 5818 5819 5820 5821 5822 5823 5824 5825 5826 5827 5828 5829 5830 5830 5831 5831 5831 5832 5832 5833 5833 5834 5834 5834 5834 5833 5833 5833 5832 5832 5831 5830 5829 5828 5826 5825 5824 5822 5821 5819 5817 5816 5814 5812 5810 5808 5805 5803 5801 5799 5797 5794 5792 5789 5786 5783 5780 5776 5772 5768 5765 5762 5758 5754 5749 5745 5741 5738 5737 5733 5726 5722 5717 5711 5705 5699 5693 5686 5680 5674 5668 5662 5657 5650 5643
5815 5817 5818 5818 5819 5820 5821 5822 5823 5824 5825 5826 5828 5829 5829 5830 5830 5831 5831 5831 5832 5832 5833 5833 5834 5834 5834 5833 5833 5833 5832 5832 5831 5830 5829 5828 5827 5826 5825 5823 5822 5820 5819 5817 5814 5812 5810 5808 5806 5804 5802 5799 5797 5795 5792 5790 5788 5784 5780 5777 5773 5769 5765 5762 5758 5755 5752 5747 5742 5738 5733 5732 5729 5722 5717 5712 5706 5700 5694 5687 5681 5675 5670 5665 5659 5652 5645 5638
5815 5817 5818 5818 5819 5820 5822 5823 5824 5825 5826 5827 5828 5829 5829 5830 5830 5831 5831 5831 5832 5832 5833 5833 5833 5833 5833 5833 5833 5832 5832 5831 5830 5829 5828 5827 5826 5825 5824 5822 5821 5819 5817 5815 5813 5810 5808 5806 5804 5802 5800 5797 5795 5793 5791 5788 5785 5781 5778 5774 5770 5767 5763 5759 5756 5753 5750 5745 5740 5735 5729 5726 5724 5718 5712 5707 5702 5696 5689 5683 5677 5672 5667 5662 5655 5648 5640 5634
5815 5817 5818 5819 5820 5821 5822 5823 5824 5825 5826 5827 5828 5828 5829 5830 5830 5830 5831 5831 5832 5832 5833 5833 5833 5833 5833 5833 5832 5831 5831 5830 5829 5828 5827 5826 5825 5824 5823 5821 5819 5818 5816 5814 5811 5808 5806 5804 5802 5800 5798 5796 5793 5791 5788 5785 5782 5779 5775 5772 5768 5765 5761 5757 5754 5750 5747 5742 5737 5732 5725 5720 5717 5712 5707 5702 5697 5691 5686 5680 5674 5669 5664 5657 5650 5643 5637 5631
5816 5817 5818 5819 5820 5821 5822 5823 5824 5825 5826 5827 5827 5828 5829 5829 5830 5830 5831 5831 5832 5832 5832 5833 5833 5833 5832 5832 5831 5831 5830 5829 5828 5828 5827 5825 5824 5823 5821 5820 5818 5816 5814 5811 5809 5807 5805 5803 5800 5798 5796 5794 5791 5789 5786 5782 5779 5776 5773 5770 5766 5762 5758 5755 5751 5747 5744 5738 5732 5726 5720 5714 5712 5708 5702 5697 5692 5687 5682 5676 5671 5665 5659 5652 5645 5639 5633 5628
5816 5817 5818 5819 5820 5821 5822 5823 5824 5825 5826 5827 5827 5828 5829 5829 5830 5830 5831 5831 5831 5832 5832 5832 5832 5832 5832 5831 5831 5830 5829 5828 5828 5827 5826 5824 5823 5821 5820 5818 5816 5814 5812 5810 5808 5806 5804 5801 5798 5796 5794 5791 5789 5786 5783 5780 5777 5774 5771 5767 5763 5759 5756 5752 5748 5744 5739 5734 5727 5722 5715 5709 5706 5702 5697 5693 5689 5684 5679 5672 5667 5661 5655 5648 5642 5636 5631 5624
5816 5817 5818 5819 5820 5821 5822 5823 5824 5825 5826 5827 5827 5828 5828 5829 5829 5830 5830 5831 5831 5831 5832 5832 5832 5831 5831 5830 5830 5829 5828 5828 5827 5826 5825 5823 5822 5820 5819 5817 5815 5813 5811 5809 5807 5805 5802 5800 5797 5795 5792 5789 5786 5783 5780 5777 5774 5771 5767 5763 5759 5756 5753 5749 5744 5739 5734 5729 5723 5718 5712 5706 5702 5698 5694 5690 5685 5680 5674 5668 5663 5657 5651 5645 5640 5634 5628 5620
5816 5817 5818 5819 5820 5821 5822 5823 5824 5825 5826 5827 5827 5828 5828 5829 5829 5830 5830 5830 5831 5831 5831 5831 5831 5830 5830 5829 5829 5828 5827 5827 5826 5825 5823 5822 5820 5818 5817 5815 5813 5811 5809 5808 5806 5804 5801 5798 5795 5793 5790 5787 5784 5780 5777 5774 5771 5768 5764 5760 5756 5753 5749 5744 5739 5734 5730 5725 5719 5714 5709 5705 5702 5696 5691 5687 5681 5676 5671 5666 5660 5654 5649 5643 5637 5631 5623 5616
5816 5817 5818 5820 5821 5822 5823 5824 5825 5825 5826 5827 5827 5828 5828 5828 5829 5829 5830 5830 5830 5831 5830 5830 5830 5830 5829 5828 5828 5827 5826 5826 5824 5823 5822 5820 5818 5817 5815 5813 5811 5809 5807 5805 5804 5801 5799 5797 5794 5791 5788 5785 5782 5778 5775 5771 5768 5764 5760 5756 5751 5747 5742 5738 5734 5729 5726 5723 5719 5713 5706 5702 5700 5695 5689 5684 5679 5674 5670 5664 5658 5652 5646 5641 5634 5627 5619 5611
5816 5818 5819 5820 5821 5822 5823 5824 5825 5825 5826 5826 5827 5827 5828 5828 5828 5829 5829 5830 5830 5830 5830 5830 5829 5829 5828 5827 5827 5826 5825 5824 5823 5821 5820 5818 5817 5815 5813 5811 5810 5807 5805 5803 5801 5799 5797 5794 5791 5788 5785 5782 5779 5776 5772 5768 5765 5760 5756 5752 5748 5743 5739 5734 5730 5726 5722 5720 5717 5712 5704 5699 5696 5692 5686 5682 5677 5672 5667 5661 5655 5649 5643 5637 5630 5622 5615 5607
5817 5818 5819 5820 5822 5822 5823 5824 5825 5825 5826 5826 5827 5827 5827 5828 5828 5829 5829 5829 5830 5829 5829 5829 5828 5828 5827 5826 5826 5825 5823 5822 5821 5820 5818 5816 5815 5813 5811 5809 5807 5805 5803 5801 5799 5796 5794 5791 5788 5785 5782 5779 5776 5773 5769 5765 5761 5757 5753 5749 5745 5741 5737 5732 5728 5723 5719 5716 5713 5710 5703 5697 5693 5688 5683 5679 5674 5669 5663 5657 5651 5645 5639 5633 5625 5618 5610 5603
5817 5819 5820 5821 5822 5823 5823 5824 5825 5825 5825 5826 5826 5827 5827 5827 5828 5828 5829 5829 5829 5829 5828 5828 5827 5827 5826 5825 5824 5823 5822 5820 5819 5818 5816 5815 5813 5811 5809 5807 5805 5803 5801 5799 5796 5794 5791 5789 5786 5783 5780 5777 5773 5770 5767 5763 5758 5754 5750 5746 5742 5738 5734 5730 5725 5720 5715 5710 5708 5705 5700 5693 5690 5686 5680 5675 5670 5663 5658 5652 5647 5641 5635 5629 5621 5613 5607 5600
5818 5819 5821 5822 5822 5823 5823 5824 5824 5825 5825 5826 5826 5826 5827 5827 5827 5828 5828 5828 5828 5828 5827 5827 5826 5825 5824 5824 5822 5821 5820 5819 5817 5816 5814 5813 5811 5809 5807 5805 5803 5801 5799 5796 5794 5791 5789 5786 5783 5781 5777 5774 5771 5768 5764 5760 5756 5752 5747 5743 5739 5735 5730 5726 5721 5717 5712 5707 5703 5701 5695 5688 5685 5681 5675 5670 5665 5659 5654 5648 5643 5637 5631 5624 5616 5610 5604 5597
5819 5820 5821 5822 5822 5823 5823 5824 5824 5824 5825 5825 5825 5826 5826 5827 5827 5827 5827 5827 5827 5827 5826 5826 5825 5824 5823 5822 5821 5820 5818 5817 5816 5814 5812 5810 5809 5807 5805 5803 5801 5799 5796 5794 5791 5789 5786 5784 5781 5778 5775 5772 5769 5765 5762 5758 5754 5749 5745 5741 5736 5732 5727 5722 5717 5712 5708 5703 5699 5698 5694 5685 5679 5676 5670 5665 5661 5655 5650 5645 5639 5633 5626 5619 5613 5607 5601 5595
5819 5820 5821 5822 5822 5823 5823 5823 5824 5824 5824 5825 5825 5825 5826 5826 5826 5827 5827 5826 5826 5826 5825 5824 5823 5822 5822 5820 5819 5818 5816 5815 5813 5812 5810 5808 5806 5805 5803 5801 5798 5796 5794 5791 5789 5786 5784 5781 5778 5775 5772 5769 5766 5762 5759 5755 5751 5747 5743 5738 5733 5728 5723 5718 5714 5709 5705 5700 5694 5692 5692 5684 5675 5671 5667 5662 5658 5653 5648 5642 5636 5629 5623 5617 5611 5605 5600 5593
5820 5821 5821 5822 5822 5822 5823 5823 5824 5824 5824 5824 5825 5825 5825 5826 5826 5826 5826 5825 5825 5824 5823 5823 5822 5821 5820 5819 5817 5816 5815 5813 5811 5809 5808 5806 5804 5802 5800 5798 5796 5794 5791 5789 5786 5783 5781 5778 5775 5772 5769 5766 5763 5759 5756 5752 5748 5744 5739 5735 5730 5725 5720 5716 5712 5707 5703 5698 5691 5686 5686 5682 5674 5669 5665 5660 5656 5650 5645 5640 5633 5627 5621 5615 5609 5604 5598 5591
5820 5821 5821 5821 5822 5822 5823 5823 5823 5824 5824 5824 5824 5825 5825 5825 5825 5825 5825 5824 5824 5823 5822 5821 5820 5819 5818 5817 5815 5814 5812 5811 5809 5807 5805 5803 5801 5799 5797 5795 5793 5791 5788 5786 5783 5781 5778 5776 5773 5770 5766 5763 5760 5756 5753 5749 5745 5741 5737 5732 5727 5722 5717 5713 5708 5704 5700 5697 5690 5683 5682 5680 5672 5667 5663 5657 5652 5647 5642 5637 5630 5624 5619 5613 5608 5602 5595 5587
5820 5820 5821 5821 5822 5822 5823 5823 5823 5823 5823 5824 5824 5824 5824 5824 5824 5824 5823 5823 5822 5821 5820 5819 5818 5817 5816 5815 5813 5812 5810 5808 5807 5805 5803 5801 5799 5797 5795 5793 5790 5788 5786 5783 5781 5778 5775 5773 5770 5767 5763 5760 5757 5754 5750 5747 5742 5738 5733 5729 5725 5720 5715 5710 5705 5701 5697 5694 5689 5681 5678 5677 5670 5664 5660 5654 5650 5645 5639 5633 5627 5621 5616 5611 5605 5598 5591 5583
5820 5820 5821 5821 5822 5822 5822 5823 5823 5823 5823 5823 5823 5823 5823 5823 5823 5823 5822 5821 5821 5820 5819 5818 5817 5815 5814 5813 5811 5810 5808 5806 5804 5802 5800 5798 5796 5794 5792 5790 5788 5785 5783 5780 5778 5775 5773 5770 5767 5765 5761 5757 5754 5751 5747 5743 5739 5734 5730 5726 5722 5718 5713 5708 5703 5698 5694 5691 5687 5679 5674 5674 5669 5662 5658 5652 5647 5642 5635 5630 5625 5619 5613 5607 5601 5594 5587 5579
5820 5820 5821 5821 5822 5822 5822 5822 5822 5822 5822 5822 5823 5822 5822 5822 5822 5821 5821 5820 5819 5818 5817 5816 5815 5814 5812 5811 5809 5807 5805 5804 5802 5800 5798 5796 5794 5792 5790 5788 5785 5783 5780 5777 5775 5772 5769 5766 5763 5761 5758 5755 5751 5747 5743 5739 5735 5731 5726 5722 5719 5714 5710 5706 5701 5695 5690 5688 5685 5678 5671 5670 5666 5660 5655 5649 5643 5638 5632 5627 5622 5616 5610 5603 5597 5590 5583 5575
5820 5820 5821 5821 5821 5821 5821 5822 5822 5822 5822 5822 5822 5821 5821 5821 5820 5820 5819 5818 5817 5816 5815 5814 5813 5812 5810 5809 5807 5805 5803 5801 5799 5798 5796 5793 5792 5789 5787 5785 5782 5780 5777 5774 5772 5769 5766 5763 5759 5757 5754 5749 5746 5742 5738 5735 5731 5727 5723 5719 5716 5712 5707 5703 5698 5693 5687 5684 5683 5677 5669 5668 5665 5659 5653 5647 5641 5636 5630 5624 5618 5612 5606 5599 5593 5586 5579 5572
5820 5820 5821 5821 5821 5821 5821 5821 5821 5821 5821 5821 5821 5820 5820 5819 5819 5818 5818 5817 5816 5815 5814 5813 5811 5810 5808 5807 5805 5803 5801 5799 5797 5795 5793 5791 5789 5787 5784 5782 5780 5777 5774 5771 5769 5766 5763 5760 5756 5753 5751 5746 5742 5739 5735 5732 5729 5725 5720 5716 5713 5709 5705 5701 5696 5690 5684 5681 5680 5675 5667 5663 5661 5657 5652 5646 5640 5634 5628 5621 5615 5608 5602 5595 5589 5582 5576 5569
5820 5820 5820 5820 5821 5821 5820 5820 5820 5820 5820 5820 5819 5819 5819 5818 5817 5817 5816 5815 5814 5813 5812 5811 5809 5808 5806 5805 5803 5801 5799 5797 5795 5793 5791 5789 5786 5784 5782 5779 5777 5774 5771 5768 5766 5763 5760 5757 5753 5750 5747 5744 5740 5736 5732 5729 5726 5722 5717 5713 5710 5706 5702 5699 5694 5688 5682 5677 5676 5672 5665 5659 5655 5652 5647 5642 5636 5632 5625 5618 5612 5605 5598 5592 5585 5579 5573 5566
5820 5820 5820 5820 5820 5820 5820 5820 5820 5819 5819 5819 5818 5818 5817 5817 5816 5815 5814 5813 5812 5811 5810 5809 5807 5806 5804 5802 5801 5799 5797 5795 5793 5790 5788 5786 5784 5781 5779 5776 5773 5771 5768 5765 5762 5759 5756 5754 5750 5747 5744 5741 5736 5733 5730 5726 5723 5719 5714 5710 5707 5703 5699 5696 5692 5686 5679 5674 5671 5668 5663 5657 5651 5647 5644 5638 5632 5627 5621 5614 5608 5601 5594 5588 5582 5576 5570 5563
5819 5819 5819 5819 5819 5819 5819 5819 5819 5818 5818 5817 5817 5817 5816 5815 5814 5813 5813 5812 5810 5809 5808 5806 5805 5803 5802 5800 5798 5796 5794 5792 5790 5788 5785 5783 5780 5778 5776 5773 5770 5767 5765 5761 5759 5756 5753 5750 5747 5743 5742 5739 5733 5729 5726 5723 5720 5717 5712 5707 5703 5700 5696 5693 5689 5683 5676 5671 5668 5663 5660 5656 5648 5642 5639 5635 5629 5623 5616 5610 5604 5598 5591 5585 5579 5573 5567 5561
5819 5819 5819 5819 5819 5818 5818 5818 5817 5817 5817 5816 5816 5815 5814 5813 5813 5812 5811 5809 5808 5807 5805 5804 5802 5800 5799 5797 5795 5793 5791 5789 5787 5785 5782 5780 5777 5775 5772 5770 5767 5764 5761 5758 5755 5752 5749 5746 5743 5740 5738 5736 5731 5726 5723 5720 5717 5714 5709 5703 5699 5696 5693 5689 5686 5680 5673 5668 5665 5660 5655 5652 5647 5639 5634 5630 5625 5619 5613 5606 5601 5595 5588 5582 5576 5569 5564 5558
5818 5818 5818 5818 5818 5817 5817 5817 5816 5816 5815 5815 5814 5813 5812 5811 5810 5809 5808 5807 5805 5804 5803 5801 5799 5797 5796 5794 5792 5790 5788 5786 5783 5781 5779 5776 5774 5771 5768 5766 5763 5760 5757 5754 5751 5748 5745 5742 5739 5735 5733 5732 5728 5723 5720 5717 5714 5710 5705 5700 5696 5692 5688 5685 5683 5677 5670 5664 5662 5657 5651 5647 5642 5636 5631 5626 5621 5615 5609 5603 5597 5591 5584 5578 5571 5565 5560 5554
5818 5817 5817 5817 5817 5816 5816 5815 5815 5814 5814 5813 5812 5811 5810 5809 5808 5807 5806 5804 5803 5801 5799 5798 5796 5794 5792 5790 5789 5787 5784 5782 5780 5778 5775 5773 5770 5768 5765 5762 5759 5756 5754 5750 5747 5744 5741 5737 5735 5731 5729 5727 5724 5719 5716 5713 5710 5706 5701 5696 5692 5688 5683 5681 5680 5675 5668 5662 5658 5654 5649 5644 5638 5632 5627 5622 5617 5612 5606 5599 5593 5587 5581 5574 5568 5562 5556 5551